Погода в Чжэньцзяне

Китай     32°11′55″N   119°27′03″E
темп.,
°C
ветер,
м/с
пор.,
м/с
влажн.,
%
обл.,
%
осадки,
мм/ч
давл.,
гПа
погр.,
м
8 марта, пн
пн823:00+5всв358996 0.0 1029234
02:00+5всв248796 0.0 1028203
05:00+6св2389100 0.0 1028185
08:00+7всв3591100 0.0 1028282
11:00+11вюв458198 0.0 1028572
14:00+13в567199 0.0 1025825
17:00+12в3778100 0.1 1024427
20:00+9в61091100 2.8 1025505
9 марта, вт
вт923:00+7в61092100 3.8 1026487
02:00+7вюв4791100 4.9 1025398
05:00+7в3688100 0.3 1025319
08:00+7вюв3590100 0.4 1027301
11:00+11в337669 0.0 1027669
14:00+11в237285 0.1 1027715
17:00+11в347676 0.0 1027567
20:00+8вюв239038 0.0 102944
10 марта, ср
ср1023:00+7юв23910 0.0 103064
02:00+6вюв23911 0.0 102932
05:00+5вюв33880 0.0 102864
08:00+7в46740 0.0 1030249
11:00+13вюв58510 0.0 1029728
14:00+16вюв68470 0.0 10261163
17:00+14в6105836 0.0 1024624
20:00+10вюв5107268 0.0 1025343
11 марта, чт
чт1123:00+9вюв51173100 0.0 1025373
02:00+8юв3782100 0.6 1024374
05:00+8вюв4791100 2.1 1023432
08:00+8всв3495100 4.1 1025285
11:00+9всв3593100 0.2 1025307
14:00+10всв228699 0.3 1023352
17:00+12всв128298 0.0 1022457
20:00+11с228699 0.0 102548
12 марта, пт
пт1223:00+9с2290100 0.0 102533
02:00+8ссв2296100 0.0 102435
05:00+7св239734 0.0 102454
08:00+9св249017 0.0 1026230
11:00+14всв337022 0.0 1026798
14:00+16всв336118 0.0 10251072
17:00+14всв447062 0.0 1024929
20:00+12в587981 0.0 1025284